Temperature
15 15 16 16 16 16 16 16 17 17 17 17 17 16 16 16 16 17 17 17 17 17 17 17 17 17 17 17 17 16 16 16 16 16 16 16 16 16 16 16 16 16 16
15 15 15 16 16 16 16 16 16 16 16 16 16 16 16 16 16 16 17 17 17 17 17 17 17 17 17 17 16 16 16 16 16 16 16 16 16 16 16 16 16 16 15
15 15 15 16 16 16 16 16 16 16 16 16 16 16 16 16 16 16 16 17 17 17 17 16 16 17 17 16 16 16 16 16 16 16 16 16 16 16 16 16 16 16 15
14 14 15 15 15 16 16 16 16 16 16 16 16 16 16 16 16 16 16 16 16 16 16 16 16 16 16 16 16 16 16 16 16 16 15 15 15 15 16 16 16 15 15
14 14 15 15 15 15 16 16 16 16 16 16 16 16 16 16 16 16 16 16 16 16 16 16 16 16 16 16 16 16 16 16 15 15 15 15 15 15 15 15 15 15 15
13 14 14 15 15 15 15 15 15 16 16 16 16 16 16 16 16 16 16 16 16 16 16 16 16 16 16 16 16 16 15 15 15 15 15 15 15 15 15 15 15 15 15
13 14 14 14 15 15 15 15 15 15 15 15 15 15 15 15 15 15 15 15 15 15 16 15 16 16 15 16 16 15 15 15 15 15 15 15 15 15 15 15 15 15 15
13 13 14 14 14 14 14 15 15 15 15 15 15 15 15 15 15 15 15 15 15 15 15 15 15 15 15 15 15 15 15 15 15 15 14 15 15 15 15 15 15 15 15
13 13 13 13 14 14 14 14 14 14 14 14 14 14 14 15 15 14 15 15 15 15 15 15 15 15 15 15 15 15 15 14 14 14 14 14 14 14 14 14 14 14 14
12 12 13 13 13 14 14 14 14 14 14 14 14 14 14 14 14 14 14 14 14 14 14 14 14 14 14 14 14 14 14 14 14 14 14 14 14 14 14 14 14 14 14
12 12 12 13 13 13 13 13 13 13 13 13 13 13 13 13 13 14 14 14 14 14 14 14 14 14 14 14 14 14 14 14 13 13 13 13 13 13 13 13 13 13 13
12 12 12 12 13 13 13 13 13 13 13 13 13 13 13 13 13 13 13 13 13 13 13 13 13 13 13 13 13 13 13 13 13 13 13 13 13 13 13 13 13 13 13
12 12 12 12 12 12 13 12 13 13 13 13 13 12 12 13 13 12 12 12 13 13 13 13 12 12 12 12 12 12 12 12 12 12 12 12 12 12 12 12 12 12 12
12 12 12 12 12 12 12 12 12 12 12 12 12 12 12 12 12 12 12 12 12 12 12 12 12 12 12 12 12 12 12 12 12 12 12 12 12 12 12 12 12 12 12
12 12 12 12 12 12 12 12 12 12 12 12 12 12 12 12 12 12 12 12 12 11 11 11 11 11 11 11 11 11 11 11 11 11 11 11 12 11 11 11 11 11 11
12 11 11 12 12 12 12 12 12 12 11 11 11 11 11 11 11 11 11 11 11 11 11 11 11 11 11 11 11 11 11 11 11 11 11 11 11 11 11 11 11 11 11
11 11 11 11 11 12 11 11 11 11 11 11 11 11 11 11 11 11 11 10 10 10 10 10 10 10 10 10 10 10 10 10 10 10 10 10 10 10 10 10 10 10 10
11 11 11 11 11 11 11 11 11 11 11 11 11 10 10 10 10 10 10 10 10 10 10 10 10 10 10 10 10 10 10 10 10 10 10 10 10 10 10 9 9 9 9
11 11 11 11 11 11 11 11 11 10 10 10 10 10 10 10 10 10 10 10 9 9 9 9 9 9 9 9 9 9 9 10 10 9 9 9 9 9 9 9 9 9 9
11 11 11 11 11 11 11 10 10 10 10 10 10 10 10 10 9 9 9 9 9 9 9 9 9 9 8 8 8 9 9 9 9 9 8 8 8 8 8 8 8 8 8
10 10 10 10 10 10 10 10 10 10 10 9 9 9 9 9 9 9 9 9 9 8 8 8 8 8 8 8 8 8 8 8 8 8 8 8 8 8 8 8 8 8 8
10 10 10 10 10 10 10 10 10 10 9 9 9 9 9 9 9 9 8 8 8 8 8 7 7 7 7 7 6 6 6 7 7 7 7 7 7 7 7 7 7 7 7
10 10 10 10 10 10 10 10 9 9 9 9 8 8 8 8 8 8 8 8 7 7 7 7 7 6 6 6 5 5 5 5 5 6 6 6 6 6 6 6 6 6 6
10 10 9 10 10 9 9 9 9 9 8 8 8 8 8 8 8 8 7 7 7 7 7 7 6 6 6 5 5 5 4 4 4 4 5 5 5 6 6 6 6 6 6
10 9 9 9 9 9 9 9 8 8 8 8 8 7 7 7 7 7 7 7 7 7 6 6 6 6 5 5 4 4 4 4 3 3 3 4 5 5 5 5 5 5 5
9 9 9 9 9 9 9 8 8 8 8 7 7 7 7 7 7 7 7 6 6 6 6 6 5 5 5 4 4 4 3 3 3 3 3 3 3 4 4 4 4 4 4
Wind_Speed
9 11 11 11 11 12 12 12 12 12 12 12 12 12 12 12 11 11 11 10 10 9 9 8 8 7 7 7 7 6 5 5 4 4 5 4 4 3 3 3 2 2 4
12 14 13 12 12 12 13 13 12 12 12 12 12 12 11 11 11 11 11 11 10 9 9 8 7 7 7 6 5 5 4 4 2 2 2 2 2 2 2 2 2 2 4
12 14 13 12 12 13 13 13 13 13 12 12 12 12 11 11 11 11 11 10 10 10 9 9 8 7 7 6 5 4 4 3 3 3 3 1 1 1 1 1 1 2 3
13 14 13 13 13 13 13 13 13 13 12 12 12 11 11 11 10 10 10 10 10 9 9 9 8 8 7 7 6 5 4 4 4 5 4 1 1 1 1 1 2 1 2
13 15 13 13 13 13 13 12 12 12 12 12 11 11 11 10 10 10 10 9 9 9 9 8 8 8 7 7 6 6 5 5 5 6 3 1 1 1 1 2 2 1 2
13 15 13 13 13 13 12 12 12 11 11 11 11 10 10 10 10 10 9 9 9 9 8 8 8 8 7 7 6 6 6 6 6 5 3 2 1 1 2 3 3 3 3
12 14 13 13 13 12 12 11 11 11 10 10 10 10 9 9 9 9 9 8 8 8 8 7 7 7 7 7 7 6 7 8 6 4 3 3 2 2 3 4 4 5 6
11 12 13 13 13 12 11 11 11 10 10 10 10 9 9 8 8 8 8 8 8 8 8 7 7 7 7 7 7 7 7 7 6 5 4 3 3 3 4 5 5 7 7
10 10 11 12 12 12 11 11 11 10 10 9 9 9 9 8 8 8 8 8 8 8 8 8 7 7 7 6 6 7 7 8 7 5 5 3 3 4 5 6 6 7 8
8 7 8 10 10 10 10 10 10 9 8 8 8 7 7 7 7 7 7 7 7 7 7 7 7 7 7 7 7 7 7 7 6 5 4 4 4 5 6 7 8 8 9
7 7 6 7 8 8 8 8 8 7 7 6 6 6 6 6 6 6 6 6 6 7 7 7 7 7 7 7 7 8 7 5 4 4 4 5 5 6 7 8 8 9 10
8 7 6 5 6 6 6 6 5 5 5 5 4 5 5 5 5 5 4 5 5 6 7 7 7 8 7 5 6 7 5 5 4 3 4 5 7 8 9 9 10 10 11
8 7 7 5 5 5 3 4 3 3 4 4 5 5 5 4 4 3 3 4 4 5 5 6 6 5 5 4 4 4 5 5 3 4 5 7 8 10 11 11 12 12 12
8 7 7 5 5 4 3 2 3 3 3 3 3 4 4 3 3 3 3 3 4 4 4 4 4 5 5 6 5 4 5 4 3 4 5 8 9 11 12 13 13 14 14
8 7 6 6 5 4 3 2 3 2 2 3 3 4 4 2 2 2 3 4 4 5 4 4 4 4 4 5 5 5 4 5 4 5 6 8 10 11 13 14 14 15 15
9 7 6 6 5 4 3 2 2 2 3 3 3 3 3 3 2 2 2 3 4 5 5 4 4 4 4 4 4 5 5 5 5 5 6 8 10 11 13 14 15 15 16
9 8 7 6 5 4 3 2 2 2 3 2 2 2 3 3 2 2 1 2 3 5 5 5 5 4 4 5 5 5 5 5 5 6 6 6 7 10 12 14 15 16 16
9 8 7 6 5 5 4 2 2 2 3 2 2 2 2 2 2 2 1 1 3 4 4 3 3 4 4 5 5 5 5 4 6 6 6 6 6 7 10 13 15 16 17
9 9 7 6 6 5 4 2 2 2 2 2 2 2 1 1 1 2 1 1 3 3 3 4 3 3 4 5 6 5 5 5 6 6 5 5 6 7 8 11 14 16 17
9 9 8 6 6 5 3 2 2 2 1 2 2 2 1 0 1 1 1 2 2 2 2 3 3 4 4 5 7 7 6 6 5 5 6 5 6 8 8 9 10 11 16
9 9 8 7 6 5 3 3 2 2 1 1 1 2 1 1 1 1 1 1 1 2 3 3 3 4 4 4 5 6 6 5 6 5 4 5 6 7 8 9 9 9 10
9 9 9 8 7 5 4 3 3 2 2 1 1 2 2 1 1 1 1 1 1 2 3 3 3 3 4 4 3 5 5 5 3 5 4 5 6 6 6 9 9 9 9
8 9 8 8 7 6 5 3 2 2 1 1 1 1 2 2 1 0 1 1 2 2 2 3 3 3 4 4 2 2 3 5 7 4 5 5 5 5 6 6 8 9 11
8 7 7 7 7 6 6 4 4 3 3 3 2 2 2 2 2 1 1 1 2 2 2 3 3 3 4 4 4 3 4 5 5 7 5 5 7 7 7 8 8 8 10
8 7 7 7 7 6 6 5 5 3 3 2 2 2 2 2 2 2 2 2 2 2 3 4 4 4 3 4 4 4 5 5 6 7 11 8 7 6 7 7 7 8 11
8 7 6 6 6 6 6 6 5 4 3 2 2 2 2 1 2 2 2 2 3 3 3 4 4 5 5 5 5 4 5 5 5 6 9 11 10 8 8 7 7 8 9
Wind_Direction
109 103 98 91 86 81 78 76 75 74 71 70 70 69 67 65 61 60 59 58 57 56 57 58 54 52 51 51 53 53 56 56 52 56 65 65 62 63 70 64 75 116 123
114 109 100 95 91 86 81 78 77 76 73 71 70 69 68 66 65 62 60 58 55 54 51 51 50 50 49 48 48 48 50 49 39 39 66 66 59 62 65 62 60 105 121
114 110 99 95 94 89 84 79 77 75 74 72 70 69 68 65 63 60 58 56 52 51 50 46 42 42 40 38 37 35 31 22 2 328 298 268 115 102 126 86 105 134 127
108 101 99 96 94 91 87 83 80 76 73 71 70 68 66 63 61 59 57 53 50 47 46 44 40 37 34 29 21 11 1 348 332 320 301 281 148 163 164 138 139 154 147
103 100 101 100 95 91 88 85 81 77 73 71 69 68 65 63 60 58 56 52 48 45 44 41 36 32 28 22 14 5 348 327 316 311 317 338 17 248 221 187 186 204 202
108 104 104 102 97 93 89 86 82 78 75 72 69 66 64 62 59 56 54 51 47 42 39 36 31 26 20 13 4 357 348 334 317 308 334 342 326 262 244 231 222 230 230
108 108 109 106 101 96 92 89 84 79 76 72 70 66 64 62 60 56 53 48 44 39 34 29 23 18 13 7 358 346 337 328 316 317 332 333 314 274 264 255 249 246 242
111 114 116 112 106 100 95 90 85 81 77 75 71 68 64 60 57 54 50 44 38 32 25 19 15 11 4 357 352 344 332 323 316 315 323 314 307 282 278 271 262 259 253
111 118 123 120 111 104 99 94 88 85 81 78 75 72 67 62 57 53 47 41 34 27 19 14 7 1 356 347 338 332 327 319 309 305 300 309 308 291 288 285 278 273 267
111 115 120 118 114 109 103 99 95 91 88 83 82 80 71 63 57 52 46 39 29 20 11 4 359 351 344 337 328 319 316 314 301 301 302 302 298 298 295 288 279 277 273
122 117 113 110 107 108 110 108 104 100 98 91 85 83 67 58 52 49 47 32 22 12 2 355 347 339 330 324 320 317 310 298 297 300 303 302 295 289 290 290 286 280 276
140 130 118 110 108 109 111 114 110 100 97 85 73 59 52 48 50 45 36 21 9 0 352 346 339 333 330 319 309 308 305 300 302 303 300 301 299 291 286 285 285 284 280
141 132 122 117 111 104 104 107 101 99 88 75 64 53 48 45 42 33 26 11 358 349 344 337 329 326 324 321 314 305 298 299 296 296 298 296 296 293 289 288 286 285 280
137 134 126 126 119 112 106 104 105 91 80 71 63 54 47 41 34 20 21 4 1 350 346 342 337 333 334 333 331 318 311 308 299 286 286 287 288 287 288 288 287 285 282
139 136 134 133 130 124 117 121 102 92 86 77 63 53 54 53 30 20 15 8 1 355 353 345 341 337 334 332 328 322 312 305 299 286 287 282 280 282 283 283 285 285 283
145 143 139 138 136 133 133 126 114 102 94 87 75 60 49 53 39 26 14 7 4 352 343 338 332 329 321 318 309 312 313 307 300 286 279 282 280 280 283 284 285 287 286
149 146 145 147 141 142 140 135 121 128 111 99 89 74 56 50 37 29 8 355 356 341 338 338 334 333 322 321 313 311 312 309 303 297 291 286 282 279 280 283 285 287 286
148 148 150 152 146 147 142 146 140 126 113 118 115 89 63 48 29 26 14 341 344 344 345 330 333 333 327 322 313 306 302 300 299 297 297 296 291 284 280 282 285 287 287
153 151 152 149 153 151 147 148 141 129 128 134 126 105 73 39 16 32 11 345 356 355 338 327 340 331 323 318 309 304 298 293 290 293 287 290 292 291 286 284 283 286 287
152 150 152 153 153 147 147 149 144 137 148 132 131 132 136 23 13 20 10 359 357 332 326 320 321 323 314 308 309 305 294 286 283 280 281 291 296 291 292 288 282 281 284
155 155 158 159 160 152 156 160 159 168 167 147 150 153 186 251 333 7 339 326 327 309 300 307 313 317 319 318 316 311 297 278 271 276 287 291 289 290 292 290 283 280 282
164 162 163 164 165 161 165 169 169 165 181 186 179 178 202 222 265 313 304 287 293 301 311 315 318 313 317 335 323 322 320 316 303 295 284 280 288 294 292 292 287 282 281
165 166 170 167 164 164 160 154 146 124 131 169 199 205 201 207 229 233 263 282 289 286 289 299 303 303 304 310 312 302 310 303 314 285 282 288 292 295 291 294 294 291 286
167 160 161 162 161 162 159 163 169 177 195 215 204 213 221 198 198 219 250 264 278 280 282 287 295 289 287 293 297 268 258 275 297 306 300 295 295 294 292 297 294 293 293
156 157 161 162 162 164 168 173 179 192 207 207 195 205 224 221 201 214 233 245 270 270 270 278 283 280 273 273 279 282 280 277 265 278 294 300 296 284 286 286 286 288 290
151 155 160 164 167 167 172 178 184 191 196 197 208 211 226 231 235 232 242 249 262 265 267 268 269 271 269 271 274 274 275 274 277 276 284 294 296 291 287 281 282 285 287
Height
1502 1504 1505 1507 1508 1509 1510 1512 1513 1514 1515 1516 1517 1518 1518 1519 1520 1521 1521 1522 1522 1523 1523 1524 1524 1524 1524 1525 1525 1525 1526 1526 1526 1526 1526 1526 1526 1526 1526 1526 1526 1526 1527
1501 1503 1505 1506 1508 1509 1510 1512 1513 1514 1515 1516 1517 1518 1519 1519 1520 1521 1521 1522 1522 1523 1523 1523 1524 1524 1524 1524 1525 1525 1525 1525 1526 1526 1526 1526 1526 1526 1526 1526 1526 1526 1527
1501 1502 1504 1506 1507 1509 1510 1512 1513 1514 1515 1516 1517 1518 1518 1519 1520 1520 1521 1521 1522 1522 1523 1523 1523 1523 1523 1524 1524 1524 1525 1525 1525 1525 1525 1525 1525 1526 1526 1526 1526 1526 1526
1501 1502 1504 1506 1507 1509 1510 1511 1512 1514 1515 1516 1516 1517 1518 1519 1519 1520 1520 1521 1521 1522 1522 1522 1522 1522 1523 1523 1523 1523 1524 1524 1524 1524 1525 1525 1525 1525 1525 1525 1525 1525 1525
1500 1502 1504 1505 1507 1509 1510 1511 1512 1513 1514 1515 1516 1516 1517 1518 1518 1519 1519 1520 1520 1521 1521 1521 1521 1521 1521 1522 1522 1522 1523 1523 1523 1523 1524 1524 1524 1524 1524 1524 1524 1524 1524
1500 1502 1504 1505 1507 1508 1510 1511 1512 1513 1514 1514 1515 1516 1516 1517 1517 1518 1518 1519 1519 1519 1519 1520 1520 1520 1520 1520 1521 1521 1521 1521 1522 1522 1522 1522 1522 1522 1522 1522 1522 1523 1523
1500 1501 1503 1505 1507 1508 1509 1510 1511 1512 1513 1514 1514 1515 1516 1516 1517 1517 1517 1517 1518 1518 1518 1518 1518 1519 1519 1519 1519 1519 1519 1520 1520 1520 1520 1520 1521 1521 1520 1520 1520 1521 1521
1500 1501 1503 1505 1506 1507 1509 1510 1511 1512 1512 1513 1514 1514 1515 1515 1515 1516 1516 1516 1516 1516 1517 1517 1517 1517 1517 1517 1517 1517 1517 1518 1517 1518 1518 1518 1518 1518 1518 1518 1518 1518 1518
1500 1501 1503 1504 1506 1507 1508 1509 1510 1511 1512 1513 1513 1514 1514 1514 1514 1515 1515 1515 1515 1515 1515 1515 1515 1515 1515 1515 1515 1515 1515 1515 1515 1515 1515 1516 1516 1516 1515 1515 1515 1515 1515
1500 1501 1502 1504 1505 1506 1508 1509 1510 1511 1511 1512 1512 1513 1513 1513 1513 1513 1513 1513 1513 1513 1513 1513 1513 1513 1513 1513 1512 1512 1512 1512 1512 1512 1512 1512 1513 1513 1512 1512 1512 1512 1512
1500 1501 1502 1503 1505 1506 1507 1508 1509 1510 1510 1511 1512 1512 1512 1512 1512 1512 1512 1512 1512 1511 1511 1511 1511 1510 1510 1510 1510 1509 1509 1509 1509 1509 1509 1509 1509 1509 1509 1509 1508 1508 1508
1499 1500 1501 1503 1504 1505 1506 1507 1508 1509 1510 1510 1511 1511 1511 1511 1511 1511 1511 1510 1510 1510 1509 1509 1508 1508 1508 1507 1507 1507 1506 1506 1506 1506 1506 1506 1506 1505 1505 1505 1504 1504 1504
1498 1499 1500 1502 1503 1504 1505 1506 1507 1508 1508 1509 1510 1510 1510 1510 1510 1510 1509 1509 1508 1508 1507 1507 1506 1506 1505 1505 1504 1504 1503 1503 1502 1502 1502 1502 1502 1501 1501 1501 1500 1500 1499
1496 1498 1499 1500 1502 1503 1504 1505 1506 1507 1507 1508 1508 1509 1509 1509 1508 1508 1508 1507 1506 1506 1505 1505 1504 1503 1503 1502 1502 1501 1500 1500 1499 1499 1498 1498 1498 1497 1497 1496 1496 1495 1495
1494 1496 1497 1499 1500 1502 1503 1504 1505 1505 1506 1506 1507 1507 1507 1507 1507 1506 1506 1505 1505 1504 1504 1503 1502 1501 1501 1500 1499 1498 1497 1497 1496 1495 1494 1494 1493 1493 1492 1491 1491 1490 1490
1492 1494 1496 1497 1499 1500 1501 1502 1503 1504 1505 1505 1505 1505 1505 1505 1505 1504 1504 1504 1503 1502 1502 1501 1500 1499 1498 1497 1496 1495 1494 1493 1492 1491 1490 1489 1489 1488 1487 1487 1486 1485 1485
1489 1491 1493 1495 1497 1498 1499 1501 1502 1502 1503 1503 1504 1504 1504 1504 1503 1503 1502 1502 1501 1500 1499 1498 1497 1496 1495 1494 1493 1492 1491 1489 1488 1487 1486 1485 1484 1483 1483 1482 1481 1480 1479
1487 1489 1491 1493 1494 1496 1497 1499 1500 1501 1501 1501 1502 1502 1502 1502 1502 1501 1500 1500 1499 1498 1497 1496 1495 1493 1492 1491 1489 1488 1487 1485 1484 1483 1482 1481 1480 1479 1478 1477 1476 1475 1474
1484 1486 1488 1490 1492 1494 1495 1497 1498 1498 1499 1499 1500 1500 1500 1500 1500 1499 1499 1498 1497 1496 1495 1494 1492 1491 1489 1488 1486 1484 1483 1481 1480 1478 1477 1476 1475 1474 1473 1471 1470 1469 1468
1481 1483 1485 1487 1489 1491 1493 1494 1495 1496 1497 1497 1498 1498 1498 1498 1498 1497 1497 1496 1495 1494 1493 1491 1490 1489 1487 1485 1482 1480 1478 1477 1475 1474 1473 1472 1470 1469 1468 1466 1465 1464 1463
1478 1480 1482 1484 1486 1488 1489 1490 1492 1493 1494 1495 1495 1496 1496 1496 1496 1495 1494 1494 1493 1491 1490 1489 1488 1486 1484 1482 1479 1475 1473 1472 1471 1470 1469 1467 1465 1464 1462 1461 1460 1458 1457
1474 1476 1478 1480 1482 1484 1486 1488 1489 1490 1491 1492 1493 1493 1493 1493 1493 1492 1492 1491 1490 1489 1488 1486 1485 1483 1481 1481 1478 1474 1470 1467 1466 1466 1464 1462 1461 1459 1458 1456 1454 1453 1451
1470 1472 1474 1477 1479 1481 1483 1485 1486 1487 1488 1489 1489 1490 1490 1490 1490 1490 1489 1488 1487 1486 1485 1484 1483 1481 1479 1478 1478 1477 1473 1467 1462 1459 1459 1458 1456 1455 1453 1451 1449 1447 1445
1466 1469 1471 1474 1476 1478 1480 1481 1482 1483 1484 1485 1486 1487 1487 1487 1487 1487 1486 1485 1485 1483 1482 1481 1480 1478 1477 1475 1474 1474 1473 1470 1465 1457 1454 1453 1452 1450 1448 1446 1444 1442 1440
1462 1465 1468 1470 1472 1474 1476 1478 1479 1481 1482 1483 1483 1484 1484 1484 1484 1484 1483 1482 1481 1480 1479 1478 1477 1475 1474 1472 1470 1469 1468 1466 1464 1460 1451 1447 1445 1444 1443 1441 1438 1436 1434
1459 1462 1464 1467 1469 1471 1473 1475 1476 1477 1478 1479 1480 1480 1480 1480 1480 1480 1480 1479 1478 1477 1476 1474 1473 1471 1470 1468 1467 1465 1464 1462 1459 1457 1451 1445 1441 1438 1437 1435 1433 1430 1428